Regional Weather Roundup
Issued by NWS

Home | Current Version | Previous Version | Graphics & Text | Print | Product List | Glossary On
Versions: 1 2 3 4 5 6 7 8 9 10 11 12 13 14 15 16 17 18 19 20 21 22 23 24 25 26 27 28 29 30 31 32 33 34 35 36 37 38 39 40 41 42 43 44 45 46 47 48 49 50
387
ASUS44 KFWD 201515
RWRTX
NORTH TEXAS HOURLY WEATHER ROUNDUP
NATIONAL WEATHER SERVICE FORT WORTH TX
900 AM CST FRI JAN 20 2017

NOTE: "FAIR" INDICATES FEW OR NO CLOUDS BELOW 12,000 FEET WITH NO
SIGNIFICANT WEATHER AND/OR OBSTRUCTIONS TO VISIBILITY.

TXZ118-119-201600-
DALLAS/FORT WORTH METROPLEX

CITY           SKY/WX    TMP DP  RH WIND       PRES   REMARKS
DFW AIRPORT    CLOUDY    53  41  63 SW10      29.66R
DALLAS LOVE    CLOUDY    54  39  57 S7        29.68R
FTW MEACHAM    SUNNY     56  35  45 SW12      29.67R
DAL-EXECUTIVE  CLOUDY    57  37  47 SW8       29.68R
FTW-ALLIANCE   MOSUNNY   54  35  48 SW14      29.65R
FTW-NAS-JRB    PTSUNNY   56  36  47 CALM      29.69R
FTW-SPINKS     SUNNY     55  37  50 SW8       29.71R
ARLINGTON      CLOUDY    54  38  54 S7        29.69R
GRAND PRAIRIE  SUNNY     50  37  62 S8        29.70R
ADDISON        MOSUNNY   54  41  62 S8        29.68R
MESQUITE       SUNNY     50  45  81 S6        29.70R
LANCASTER      MOSUNNY   52  41  66 CALM      29.71R
$$

TXZ091>094-102>105-117-120-121-131>134-201600-
NORTH CENTRAL TEXAS

CITY           SKY/WX    TMP DP  RH WIND       PRES   REMARKS
SHRMAN/DENISON SUNNY     54  42  64 SW14      29.64R
GAINESVILLE    SUNNY     49  42  78 SW6       29.65R
BOWIE          SUNNY     57  38  48 SW15      29.64R
BRIDGEPORT     SUNNY     57  38  48 SW13G21   29.68R
DECATUR        SUNNY     54  35  48 SW12      29.65S
DENTON         SUNNY     53  39  59 SW10      29.65R
MCKINNEY       SUNNY     54  42  64 S5        29.67R
BONHAM         SUNNY     54  43  66 SW12      29.65R
GREENVILLE       N/A     54  43  66 S10       29.69R
ROCKWALL       CLOUDY    52  42  68 SW14      29.69R
TERRELL        CLOUDY    54  43  66 S8        29.71R
WAXAHACHIE     CLOUDY    53  40  61 SW7       29.71R
CLEBURNE       CLOUDY    55  39  54 CALM      29.73R
GRANBURY       CLOUDY    56  36  46 SW9       29.73R
$$

TXZ083>090-098>101-113>116-127>130-139>142-154-155-201600-
WESTERN NORTH TEXAS

CITY           SKY/WX    TMP DP  RH WIND       PRES   REMARKS
WICHITA FALLS  MOSUNNY   54  37  52 SW20G28   29.59R
WF-KICKAPOO    SUNNY     55  37  51 SW16      29.62R
VERNON         SUNNY     51  34  53 SW10      29.60R
ABILENE        SUNNY     55  35  47 W13       29.70R
ABILENE-DYESS  SUNNY     56  32  39 W10       29.68S
GRAHAM         SUNNY     52  37  58 CALM      29.67R
BRECKENRIDGE   SUNNY     55  35  47 W10       29.68F
CISCO          SUNNY     55  36  47 W12       29.70R
RANGER         SUNNY     50  34  53 SW10      29.71R
MINERAL WELLS  SUNNY     52  35  52 SW8       29.68R
STEPHENVILLE   CLOUDY    51  35  53 CALM      29.75R
COMANCHE       CLOUDY    52  36  54 SW12      29.75R
BROWNWOOD      CLOUDY    52  36  54 S6        29.76R
COLEMAN        SUNNY     48  36  61 SW6       29.76R
$$

TXZ143>147-156>162-174-175-201600-
CENTRAL TEXAS

CITY           SKY/WX    TMP DP  RH WIND       PRES   REMARKS
WACO           MOSUNNY   53  46  77 S9        29.76R
WACO-TSTC      SUNNY     54  48  82 S6        29.76R
WACO-MCGREGOR  MOSUNNY   55  46  71 SW8       29.77R
HILLSBORO      CLOUDY    53  44  72 S12       29.74R
CORSICANA      SUNNY     58  48  69 SW13      29.76R
MEXIA          CLOUDY    57  51  79 S13G22    29.76R
HEARNE         CLOUDY    58  57  98 S8        29.81R
CAMERON        CLOUDY    58  57  97 S8        29.79R FOG
TEMPLE         MOSUNNY   53  49  86 S12       29.78R
KILLEEN        CLOUDY    56  41  56 S12       29.76R
KILLEEN-SKYLRK MOSUNNY   57  43  59 SW9       29.78R
FORT HOOD      MOSUNNY   57  42  56 SW9       29.75R
GATESVILLE     MOSUNNY   55  37  50 SW12      29.77R
HAMILTON       MOSUNNY   57  37  46 W12       29.76R
LAMPASAS       MOSUNNY   53  44  71 CALM      29.77R
$$

TXZ095>097-106>112-122>126-135>138-148>153-164>167-201600-
EAST TEXAS

CITY           SKY/WX    TMP DP  RH WIND       PRES   REMARKS
PARIS          SUNNY     54  45  71 SW10      29.67R
SULPHUR SPRNGS SUNNY     56  46  69 SW13      29.71R
MOUNT PLEASANT SUNNY     57  52  83 SW12      29.72R
GILMER         SUNNY     57  53  86 S10       29.72R FOG
MINEOLA        SUNNY     59  48  67 SW8G20    29.71R
TYLER          SUNNY     58  53  84 SW12      29.73R
LONGVIEW       MOSUNNY   59  57  93 S15       29.72R
MARSHALL       MOSUNNY   56  54  92 S6        29.75S
ATHENS         SUNNY     57  52  82 S8        29.73R
PALESTINE      MOSUNNY   58  58 100 S10       29.77R FOG
HENDERSON      SUNNY     58  56  91 SW6G16    29.75R
CENTER         PTSUNNY   61  59  91 S10G17    29.78R
NACOGDOCHES    CLOUDY    59  55  88 SW12      29.77R
LUFKIN         CLOUDY    60  57  89 S9        29.80R
$$

SUPPLEMENTAL OBSERVATIONS (CENTRAL)

CITY           SKY/WX    TMP DP  RH WIND       PRES   REMARKS
DENISON DAM      N/A     55  36  47 SW21        N/A
CADDO GRASSLND   N/A     55  43  62 S9          N/A
PAT MAYSE LAKE   N/A     54  46  76 S12         N/A
GREENVILLE       N/A     55  45  67 SW10        N/A
CEDAR HILL       N/A     55  37  50 S7          N/A
ATHENS           N/A     61  52  72 SW7         N/A
LAKE LIMESTONE   N/A     59  55  88 S9          N/A
MCGREGOR         N/A     54  52  94 S5          N/A
TEMPLE           N/A     54  50  87 S6          N/A
$$

SUPPLEMENTAL OBSERVATIONS (WEST)

CITY           SKY/WX    TMP DP  RH WIND       PRES   REMARKS
MILLERS CREEK    N/A     54  39  58 W13         N/A
POSSUM KINGDOM   N/A     55  36  47 W9G17       N/A
LBJ GRASSLAND    N/A     57  37  47 SW7         N/A
GRANBURY         N/A     55  34  44 SW10        N/A
COMANCHE         N/A     54  34  47 SW12        N/A
HAMBY            N/A     55  37  50 W15         N/A
IVIE RESERVOIR   N/A     54  37  54 SW8         N/A
COLORADO BEND    N/A     55  36  47 W8          N/A
$$

SUPPLEMENTAL OBSERVATIONS (EAST)

CITY           SKY/WX    TMP DP  RH WIND       PRES   REMARKS
CLARKSVILLE      N/A     55  48  76 SW7G15      N/A
LINDEN           N/A     59  55  88 SW6         N/A
CADDO LAKE       N/A     45  39  81 SW5G15      N/A
GILMER           N/A     61  54  77 SW10        N/A
HENDERSON        N/A     61  57  88 SW10        N/A
LUFKIN           N/A     61  57  88 MISG        N/A
N SABINE NF      N/A     59  57  94 MISG        N/A
S SABINE NF      N/A     61  59  94 S3          N/A
$$

SUPPLEMENTAL OBSERVATIONS ARE A COLLECTION OF AUTOMATED INSTRUMENTS
THAT ARE MAINTAINED BY A VARIETY OF FEDERAL AND STATE AGENCIES.
CERTAIN ELEMENTS...SUCH AS HUMIDITY VALUES AND SUSTAINED WIND
SPEEDS...MAY BE APPROXIMATED.





USA.gov is the U.S. government's official web portal to all federal, state and local government web resources and services.